User: anonymous   Login
Location: Caltech
(34.1382°N, 118.1253°W)
Time: 14:39:38
(UTC-08:00)
Language:

Iridium 95 - Orbit

View from above orbital plane
View from above orbital plane
View from above satellite
View from above satellite

Ground track
Ground track

The orbit data is extracted from the following two-line orbital elements,

1 27375U 02005D   17324.33702487  .00000215  00000-0  69764-4 0  9996
2 27375  86.4000 221.9044 0001523  59.1651 300.9694 14.34219742833297
Epoch (UTC): 20 November 2017 08:05:18
Eccentricity: 0.0001523
inclination: 86.4000°
perigee height: 776 km
apogee height: 779 km
right ascension of ascending node: 221.9044°
argument of perigee: 59.1651°
revolutions per day: 14.34219742
mean anomaly at epoch: 300.9694°
orbit number at epoch: 83329

The dashed part of the orbit path shows where the satellite is in the earth's shadow,  

DLR